Weather History for Cuiaba Marechal Ron, Brazil

Change the Weather History Date:

Monday, September 23, 2013

  Actual Average Record
Temperature  
Mean Temperature 69 °F -  
Max Temperature 72 °F 92 °F 102 °F (2007)
Min Temperature 64 °F 74 °F 59 °F (2008)
Cooling Degree Days 4    
Growing Degree Days 19 (Base 50)    
Moisture  
Dew Point 60 °F    
Average Humidity 64    
Maximum Humidity 78    
Minimum Humidity 39    
Precipitation  
Precipitation 0.00 in - - ()
Sea Level Pressure  
Sea Level Pressure 30.05 in    
Wind  
Wind Speed 10 mph ()    
Max Wind Speed 23 mph    
Max Gust Speed -    
Visibility 6.0 miles    
Events      
Averages and records for this station are not official NWS values.
T = Trace of Precipitation, MM = Missing Value Source: Averaged Metar Reports

Daily Weather History Graph

Daily Weather History Graph

Search for Another Location

Airport:

Trip Planner

Search our weather history database for the weather conditions in past years. The results will help you decide how hot, cold, wet, or windy it might be!

Date:

Astronomy

Sep. 23, 2013 Rise Set
Actual Time 5:33 AM AMT 5:40 PM AMT
Civil Twilight 5:11 AM AMT 6:02 PM AMT
Nautical Twilight 4:46 AM AMT 6:26 PM AMT
Astronomical Twilight 4:21 AM AMT 6:52 PM AMT
Moon 9:33 PM AMT (9/23) 8:26 AM AMT (9/23)
Length of Visible Light 12h 50m
Length of Day
12h 07m
Waning Gibbous, 81% of the Moon is Illuminated
Sep 23
Waning Gibbous
Sep 26
Last Quarter
Oct 4
New
Oct 11
First Quarter
Oct 18
Full

Hourly Weather History & Observations

Time (AMT) Temp. Heat Index Dew Point Humidity Pressure Visibility Wind Dir Wind Speed Gust Speed Precip Events Conditions
12:00 AM 86.0 °F 86.6 °F 62.6 °F 45% 29.92 in - NW 5.8 mph - N/A   Clear
1:00 AM 84.2 °F 85.0 °F 62.6 °F 48% 29.92 in - NNW 3.5 mph - N/A   Clear
2:00 AM 84 °F - 63 °F 39% 29.88 in 12 mi WNW 8.1 mph - -  
2:00 AM 84.2 °F 85.0 °F 62.6 °F 48% 29.92 in - WNW 8.1 mph - N/A   Clear
3:00 AM 80.6 °F 83.2 °F 68.0 °F 65% 29.98 in - SSW 8.1 mph - N/A   Clear
4:00 AM 73.4 °F - 66.2 °F 78% 29.98 in - South 10.4 mph - N/A   Clear
5:00 AM 71.6 °F - 62.6 °F 73% 30.01 in - South 9.2 mph - N/A   Clear
6:00 AM 69.8 °F - 60.8 °F 73% 30.04 in - SSE 13.8 mph - N/A   Clear
7:00 AM 69.8 °F - 60.8 °F 73% 30.09 in 6.2 mi SSW 11.5 mph - N/A   Mostly Cloudy
8:00 AM 70 °F - 59 °F 60% 30.09 in 12 mi SSW 23.0 mph - -   Partly Cloudy
8:00 AM 69.8 °F - 59.0 °F 68% 30.09 in 6.2 mi SSW 23.0 mph - N/A   Mostly Cloudy
9:00 AM 69.8 °F - 59.0 °F 68% 30.12 in 6.2 mi South 16.1 mph - N/A   Mostly Cloudy
10:00 AM 69.8 °F - 59.0 °F 68% 30.12 in 5.0 mi SSW 11.5 mph - N/A   Mostly Cloudy
10:18 AM 69.8 °F - 59.0 °F 68% 30.12 in 2.5 mi South 11.5 mph - N/A   Haze
11:00 AM 69.8 °F - 59.0 °F 68% 30.12 in 3.7 mi SSE 11.5 mph - N/A   Mostly Cloudy
12:00 PM 69.8 °F - 59.0 °F 68% 30.09 in 3.1 mi South 11.5 mph - N/A   Haze
1:00 PM 71.6 °F - 59.0 °F 64% 30.06 in 3.7 mi South 12.7 mph - N/A   Mostly Cloudy
2:00 PM 73 °F - 59 °F 53% 30.02 in 4 mi South 11.5 mph - -   Haze
2:00 PM 73.4 °F - 59.0 °F 61% 30.04 in 3.7 mi South 11.5 mph - N/A   Mostly Cloudy
3:00 PM 73.4 °F - 59.0 °F 61% 30.01 in 5.0 mi South 11.5 mph - N/A   Mostly Cloudy
4:00 PM 71.6 °F - 59.0 °F 64% 30.01 in 5.6 mi South 16.1 mph - N/A   Mostly Cloudy
5:00 PM 71.6 °F - 59.0 °F 64% 30.01 in 5.6 mi South 12.7 mph - N/A   Mostly Cloudy
6:00 PM 71.6 °F - 59.0 °F 64% 30.04 in 5.6 mi SSE 8.1 mph - N/A   Mostly Cloudy
7:00 PM 69.8 °F - 57.2 °F 64% 30.06 in 6.2 mi South 13.8 mph - N/A   Mostly Cloudy
8:00 PM 67 °F - 57 °F 62% 30.10 in 12 mi South 19.6 mph - -   Mostly Cloudy
8:00 PM 66.2 °F - 57.2 °F 73% 30.09 in 6.2 mi South 19.6 mph - N/A   Mostly Cloudy
9:00 PM 66.2 °F - 55.4 °F 68% 30.12 in 6.2 mi South 18.4 mph - N/A   Mostly Cloudy
10:00 PM 66.2 °F - 55.4 °F 68% 30.15 in 6.2 mi South 16.1 mph - N/A   Mostly Cloudy
11:00 PM 64.4 °F - 55.4 °F 73% 30.15 in 6.2 mi South 17.3 mph - N/A   Mostly Cloudy